CZ-2C R/B (52794 NORAD) Tracking and Keplerian Element Data

This shows tracking and keplerian element data for the satellite.

Feedback or suggestion? Click here.




ElementValue
Catalog52794
NameCZ-2C R/B
Epoch Orbit8933
Epoch Day12.92052966
Epoch Year2024
RAAN285.5628
Inclination50.1719
Eccentricity0.0087718
Argument of Perigee220.7882
Mean Anonmoly138.6485
Mean Motion15.19085968
Decay Rate8.675E-05
L11 52794U 22058K 24012.92052966 .00008675 00000+0 38290-3 0 9992
L22 52794 50.1719 285.5628 0087718 220.7882 138.6485 15.19085968 89338



Live tracking and technical data element details for CZ-2C R/B (NORAD 52794). CZ-2C R/B can be tracked NOW for your location showing map with azimuth and elevation plus other details from your city location.







IsCatalogInMostPopularTable: catalog: 52794, numindb: 51
Update: records affected: 1



GetName: 52794 CZ-2C R/B

Hit Count: updated at: Fri, 19 Apr 2024 11:18:26 GMT